| time (UTC) | temp F | wind direction | speed MPH | gust MPH | rain 1hr in | rain 24hr in | rain mn in | humidity % | barometer mb |
| 20260905153048 | 89 | 0 | 0.0 | 3.0 | 0.00 | 0.03 | 0.02 | 75 | 1012.9 |
| 20260905151558 | 87 | 91 | 0.0 | 2.0 | 0.00 | 0.03 | 0.02 | 75 | 1013.1 |
| 20260905150051 | 85 | 0 | 0.0 | 2.0 | 0.00 | 0.03 | 0.02 | 81 | 1013.0 |
| 20260905144547 | 83 | 244 | 0.0 | 2.0 | 0.00 | 0.03 | 0.02 | 86 | 1013.0 |
| 20260905143050 | 81 | 120 | 0.0 | 1.0 | 0.00 | 0.03 | 0.02 | 88 | 1013.1 |
| 20260905141546 | 79 | 105 | 0.0 | 1.0 | 0.00 | 0.03 | 0.02 | 92 | 1013.0 |
| 20260905140048 | 78 | 0 | 0.0 | 1.0 | 0.00 | 0.03 | 0.02 | 95 | 1012.6 |
| 20260905134545 | 76 | 0 | 0.0 | 0.0 | 0.00 | 0.03 | 0.02 | 97 | 1012.8 |
| 20260905133049 | 75 | 0 | 0.0 | 3.0 | 0.00 | 0.03 | 0.02 | 99 | 1012.9 |
| 20260905131558 | 74 | 0 | 0.0 | 1.0 | 0.00 | 0.03 | 0.02 | 99 | 1012.9 |
| 20260905130048 | 74 | 0 | 0.0 | 0.0 | 0.00 | 0.03 | 0.02 | 99 | 1012.9 |
| 20260905124544 | 73 | 0 | 0.0 | 1.0 | 0.00 | 0.03 | 0.02 | 99 | 1012.9 |
| 20260905123106 | 72 | 0 | 0.0 | 0.0 | 0.00 | 0.03 | 0.02 | 99 | 1013.0 |
| 20260905121548 | 72 | 0 | 0.0 | 0.0 | 0.00 | 0.02 | 0.01 | 99 | 1013.0 |
| 20260905120047 | 72 | 0 | 0.0 | 0.0 | 0.00 | 0.02 | 0.01 | 99 | 1013.0 |
| 20260905114546 | 71 | 0 | 0.0 | 0.0 | 0.00 | 0.02 | 0.01 | 99 | 1012.8 |
| 20260905113050 | 71 | 0 | 0.0 | 0.0 | 0.00 | 0.02 | 0.01 | 99 | 1012.7 |
| 20260905111556 | 71 | 0 | 0.0 | 0.0 | 0.00 | 0.02 | 0.01 | 99 | 1012.4 |
| 20260905110047 | 71 | 0 | 0.0 | 0.0 | 0.00 | 0.02 | 0.01 | 99 | 1012.4 |
| 20260905104541 | 71 | 0 | 0.0 | 0.0 | 0.00 | 0.02 | 0.01 | 99 | 1012.2 |
| 20260905103055 | 71 | 0 | 0.0 | 0.0 | 0.00 | 0.02 | 0.01 | 98 | 1012.0 |
| 20260905101543 | 71 | 0 | 0.0 | 0.0 | 0.00 | 0.02 | 0.01 | 98 | 1011.7 |
| 20260905100057 | 71 | 0 | 0.0 | 0.0 | 0.00 | 0.02 | 0.01 | 98 | 1011.7 |
| 20260905094547 | 71 | 0 | 0.0 | 0.0 | 0.00 | 0.02 | 0.01 | 98 | 1011.7 |
| 20260905093044 | 71 | 0 | 0.0 | 0.0 | 0.00 | 0.02 | 0.01 | 98 | 1011.7 |
| 20260905091549 | 71 | 0 | 0.0 | 0.0 | 0.00 | 0.02 | 0.01 | 98 | 1011.9 |
| 20260905090048 | 71 | 0 | 0.0 | 0.0 | 0.00 | 0.02 | 0.01 | 98 | 1011.9 |
| 20260905084604 | 72 | 0 | 0.0 | 0.0 | 0.00 | 0.02 | 0.01 | 98 | 1012.1 |
| 20260905083049 | 72 | 0 | 0.0 | 0.0 | 0.00 | 0.02 | 0.01 | 98 | 1012.4 |
| 20260905081545 | 72 | 0 | 0.0 | 0.0 | 0.00 | 0.02 | 0.01 | 98 | 1012.7 |
| 20260905080115 | 72 | 0 | 0.0 | 0.0 | 0.00 | 0.02 | 0.01 | 98 | 1012.7 |
| 20260905074551 | 72 | 0 | 0.0 | 0.0 | 0.00 | 0.02 | 0.01 | 97 | 1012.9 |
| 20260905073049 | 72 | 0 | 0.0 | 0.0 | 0.00 | 0.02 | 0.01 | 97 | 1012.9 |
| 20260905071543 | 73 | 0 | 0.0 | 0.0 | 0.00 | 0.02 | 0.01 | 97 | 1013.1 |
| 20260905070051 | 73 | 0 | 0.0 | 0.0 | 0.00 | 0.02 | 0.01 | 97 | 1013.0 |
| 20260905064553 | 73 | 0 | 0.0 | 0.0 | 0.00 | 0.02 | 0.01 | 96 | 1013.4 |
| 20260905063049 | 74 | 0 | 0.0 | 0.0 | 0.01 | 0.02 | 0.01 | 96 | 1013.4 |
| 20260905061546 | 74 | 0 | 0.0 | 0.0 | 0.01 | 0.02 | 0.01 | 96 | 1013.7 |
| 20260905060057 | 75 | 0 | 0.0 | 0.0 | 0.01 | 0.02 | 0.01 | 95 | 1014.1 |
| 20260905054554 | 76 | 0 | 0.0 | 0.0 | 0.01 | 0.02 | 0.01 | 92 | 1014.1 |
| 20260905053058 | 77 | 0 | 0.0 | 0.0 | 0.00 | 0.00 | 0.00 | 90 | 1015.1 |
| 20260905051553 | 77 | 0 | 0.0 | 0.0 | 0.00 | 0.00 | 0.00 | 89 | 1015.0 |
| 20260905050043 | 76 | 0 | 0.0 | 0.0 | 0.00 | 0.00 | 0.00 | 90 | 1015.0 |
| 20260905044549 | 76 | 0 | 0.0 | 0.0 | 0.00 | 0.00 | 0.00 | 91 | 1015.2 |
| 20260905043058 | 76 | 0 | 0.0 | 0.0 | 0.00 | 0.00 | 0.00 | 91 | 1015.2 |
| 20260905041547 | 76 | 0 | 0.0 | 0.0 | 0.00 | 0.00 | 0.00 | 90 | 1015.3 |
| 20260905040053 | 76 | 0 | 0.0 | 0.0 | 0.00 | 0.00 | 0.00 | 89 | 1015.4 |
| 20260905034558 | 75 | 0 | 0.0 | 0.0 | 0.00 | 0.00 | 0.00 | 89 | 1015.3 |
| 20260905033047 | 75 | 0 | 0.0 | 0.0 | 0.00 | 0.00 | 0.00 | 90 | 1015.5 |
| 20260905031545 | 75 | 0 | 0.0 | 0.0 | 0.00 | 0.00 | 0.00 | 91 | 1015.1 |
| 20260905030055 | 75 | 0 | 0.0 | 0.0 | 0.00 | 0.00 | 0.00 | 91 | 1015.0 |
| 20260905024548 | 75 | 0 | 0.0 | 0.0 | 0.00 | 0.00 | 0.00 | 91 | 1015.4 |
| 20260905023049 | 76 | 0 | 0.0 | 0.0 | 0.00 | 0.00 | 0.00 | 91 | 1015.3 |
| 20260905021552 | 76 | 0 | 0.0 | 1.0 | 0.00 | 0.00 | 0.00 | 91 | 1015.2 |
| 20260905020052 | 76 | 63 | 0.0 | 6.0 | 0.00 | 0.00 | 0.00 | 90 | 1015.1 |
| 20260905014550 | 76 | 0 | 0.0 | 1.0 | 0.00 | 0.00 | 0.00 | 91 | 1015.1 |
| 20260905013047 | 75 | 0 | 0.0 | 1.0 | 0.00 | 0.00 | 0.00 | 93 | 1014.4 |
| 20260905011610 | 75 | 0 | 0.0 | 0.0 | 0.00 | 0.00 | 0.00 | 93 | 1014.0 |
| 20260905010046 | 76 | 0 | 0.0 | 0.0 | 0.00 | 0.00 | 0.00 | 91 | 1013.2 |
| 20260905004551 | 77 | 0 | 0.0 | 0.0 | 0.00 | 0.00 | 0.00 | 89 | 1013.0 |
| 20260905003054 | 79 | 0 | 0.0 | 0.0 | 0.00 | 0.00 | 0.00 | 85 | 1012.8 |
| 20260905001553 | 80 | 0 | 0.0 | 1.0 | 0.00 | 0.00 | 0.00 | 80 | 1013.2 |
| 20260905000044 | 82 | 76 | 0.0 | 6.0 | 0.00 | 0.00 | 0.00 | 76 | 1013.4 |
| 20260904234550 | 84 | 128 | 0.0 | 4.0 | 0.00 | 0.00 | 0.00 | 75 | 1013.9 |
| 20260904233058 | 86 | 132 | 2.0 | 8.0 | 0.00 | 0.00 | 0.00 | 74 | 1014.3 |
| 20260904231549 | 86 | 0 | 0.0 | 0.0 | 0.00 | 0.00 | 0.00 | 79 | 1013.4 |
| 20260904230046 | 87 | 0 | 0.0 | 0.0 | 0.00 | 0.00 | 0.00 | 77 | 1013.4 |
| 20260904224548 | 87 | 0 | 0.0 | 0.0 | 0.00 | 0.00 | 0.00 | 77 | 1013.2 |
| 20260904223049 | 88 | 0 | 0.0 | 0.0 | 0.00 | 0.00 | 0.00 | 73 | 1013.2 |
| 20260904221547 | 89 | 0 | 0.0 | 1.0 | 0.00 | 0.00 | 0.00 | 74 | 1013.4 |
| 20260904214551 | 90 | 0 | 0.0 | 0.0 | 0.00 | 0.00 | 0.00 | 71 | 1013.1 |
| 20260904213051 | 91 | 0 | 0.0 | 2.0 | 0.00 | 0.00 | 0.00 | 69 | 1013.2 |
| 20260904211545 | 92 | 0 | 0.0 | 1.0 | 0.00 | 0.00 | 0.00 | 69 | 1013.0 |
| 20260904210048 | 92 | 0 | 0.0 | 1.0 | 0.00 | 0.00 | 0.00 | 69 | 1012.9 |
| 20260904204543 | 93 | 0 | 0.0 | 1.0 | 0.00 | 0.00 | 0.00 | 67 | 1013.0 |
| 20260904203043 | 96 | 0 | 0.0 | 1.0 | 0.00 | 0.00 | 0.00 | 64 | 1012.9 |
| 20260904201606 | 96 | 212 | 0.0 | 3.0 | 0.00 | 0.00 | 0.00 | 62 | 1012.9 |
| 20260904200051 | 95 | 0 | 0.0 | 1.0 | 0.00 | 0.00 | 0.00 | 64 | 1013.4 |
| 20260904194546 | 95 | 0 | 0.0 | 1.0 | 0.00 | 0.00 | 0.00 | 65 | 1013.8 |
| 20260904193050 | 95 | 351 | 0.0 | 3.0 | 0.00 | 0.00 | 0.00 | 65 | 1013.9 |
| 20260904191543 | 95 | 0 | 0.0 | 1.0 | 0.00 | 0.00 | 0.00 | 64 | 1014.0 |
| 20260904190046 | 97 | 0 | 0.0 | 2.0 | 0.00 | 0.00 | 0.00 | 59 | 1014.3 |
| 20260904184549 | 98 | 32 | 1.0 | 5.0 | 0.00 | 0.00 | 0.00 | 56 | 1014.5 |
| 20260904183058 | 98 | 113 | 0.0 | 2.0 | 0.00 | 0.00 | 0.00 | 56 | 1014.8 |
| 20260904181545 | 99 | 0 | 1.0 | 3.0 | 0.00 | 0.00 | 0.00 | 57 | 1015.1 |
| 20260904180100 | 98 | 248 | 0.0 | 2.0 | 0.00 | 0.00 | 0.00 | 61 | 1015.2 |
| 20260904174550 | 97 | 139 | 0.0 | 4.0 | 0.00 | 0.00 | 0.00 | 63 | 1015.2 |
| 20260904173108 | 97 | 3 | 0.0 | 3.0 | 0.00 | 0.00 | 0.00 | 64 | 1015.5 |
| 20260904171553 | 97 | 104 | 0.0 | 2.0 | 0.00 | 0.00 | 0.00 | 62 | 1015.6 |
| 20260904164549 | 95 | 0 | 0.0 | 2.0 | 0.00 | 0.00 | 0.00 | 63 | 1015.9 |
| 20260904163047 | 94 | 0 | 1.0 | 4.0 | 0.00 | 0.00 | 0.00 | 66 | 1016.2 |
| 20260904161542 | 93 | 139 | 1.0 | 3.0 | 0.00 | 0.00 | 0.00 | 66 | 1016.4 |
| 20260904160050 | 92 | 93 | 0.0 | 3.0 | 0.00 | 0.00 | 0.00 | 68 | 1016.6 |
| 20260904154550 | 91 | 0 | 0.0 | 1.0 | 0.00 | 0.00 | 0.00 | 70 | 1016.6 |